Time,TemperatureF,DewpointF,PressureIn,WindDirection,WindDirectionDegrees,WindSpeedMPH,WindSpeedGustMPH,Humidity,HourlyPrecipIn,Conditions,Clouds,dailyrainin,SoftwareType,DateUTC
2013-08-25 00:12:00,60.0,56.0,29.93,WNW,286,0.0,1.0,86,0.00,,,0.00,,2013-08-25 07:12:00,
2013-08-25 00:22:00,60.0,56.0,29.92,WNW,286,0.0,1.0,87,0.00,,,0.00,,2013-08-25 07:22:00,
2013-08-25 00:42:00,59.0,55.0,29.92,WNW,286,0.0,1.0,87,0.00,,,0.00,,2013-08-25 07:42:00,
2013-08-25 00:52:00,59.0,55.0,29.92,WNW,286,1.0,2.0,88,0.00,,,0.00,,2013-08-25 07:52:00,
2013-08-25 01:12:00,59.0,55.0,29.93,WNW,286,0.0,1.0,87,0.00,,,0.00,,2013-08-25 08:12:00,
2013-08-25 01:21:00,59.0,56.0,29.93,WNW,286,0.0,0.0,89,0.00,,,0.00,,2013-08-25 08:21:00,
2013-08-25 01:42:00,59.0,56.0,29.93,WNW,286,0.0,1.0,89,0.00,,,0.00,,2013-08-25 08:42:00,
2013-08-25 01:52:00,59.0,56.0,29.93,WNW,286,0.0,1.0,89,0.00,,,0.00,,2013-08-25 08:52:00,
2013-08-25 02:11:00,59.0,56.0,29.93,WNW,286,0.0,1.0,89,0.00,,,0.00,,2013-08-25 09:11:00,
2013-08-25 02:22:00,59.0,56.0,29.93,WNW,286,0.0,2.0,89,0.00,,,0.00,,2013-08-25 09:22:00,
2013-08-25 02:44:00,59.0,55.0,29.94,WNW,286,0.0,1.0,88,0.00,,,0.00,,2013-08-25 09:44:00,
2013-08-25 02:55:00,59.0,55.0,29.93,WNW,286,0.0,1.0,88,0.00,,,0.00,,2013-08-25 09:55:00,
2013-08-25 03:12:00,59.0,56.0,29.93,WNW,286,0.0,1.0,90,0.00,,,0.00,,2013-08-25 10:12:00,
2013-08-25 03:22:00,59.0,56.0,29.93,WNW,286,0.0,1.0,90,0.00,,,0.00,,2013-08-25 10:22:00,
2013-08-25 03:42:00,58.0,55.0,29.93,WNW,286,0.0,2.0,91,0.00,,,0.00,,2013-08-25 10:42:00,
2013-08-25 03:53:00,58.0,56.0,29.93,WNW,286,0.0,1.0,92,0.00,,,0.00,,2013-08-25 10:53:00,
2013-08-25 04:11:00,58.0,56.0,29.94,WNW,286,0.0,0.0,93,0.00,,,0.00,,2013-08-25 11:11:00,
2013-08-25 04:22:00,58.0,56.0,29.94,WNW,286,0.0,1.0,93,0.00,,,0.00,,2013-08-25 11:22:00,
2013-08-25 04:42:00,58.0,56.0,29.94,WNW,286,0.0,1.0,93,0.00,,,0.00,,2013-08-25 11:42:00,
2013-08-25 04:52:00,58.0,56.0,29.94,WNW,286,0.0,1.0,93,0.00,,,0.00,,2013-08-25 11:52:00,
2013-08-25 05:12:00,58.0,56.0,29.94,WNW,286,0.0,1.0,94,0.00,,,0.00,,2013-08-25 12:12:00,
2013-08-25 05:22:00,58.0,56.0,29.95,WNW,286,0.0,1.0,94,0.00,,,0.00,,2013-08-25 12:22:00,
2013-08-25 05:42:00,58.0,57.0,29.95,WNW,286,0.0,1.0,95,0.00,,,0.00,,2013-08-25 12:42:00,
2013-08-25 05:52:00,58.0,57.0,29.95,SSW,211,1.0,2.0,95,0.00,,,0.00,,2013-08-25 12:52:00,
2013-08-25 06:11:00,58.0,57.0,29.95,SSW,211,0.0,1.0,95,0.00,,,0.00,,2013-08-25 13:11:00,
2013-08-25 06:21:00,58.0,57.0,29.95,SSE,153,1.0,2.0,96,0.00,,,0.00,,2013-08-25 13:21:00,
2013-08-25 06:42:00,58.0,57.0,29.95,SSE,153,0.0,1.0,95,0.00,,,0.00,,2013-08-25 13:42:00,
2013-08-25 06:52:00,58.0,57.0,29.96,SSE,153,1.0,1.0,96,0.00,,,0.00,,2013-08-25 13:52:00,
2013-08-25 07:11:00,58.0,57.0,29.96,SW,236,0.0,2.0,96,0.00,,,0.00,,2013-08-25 14:11:00,
2013-08-25 07:23:00,58.0,57.0,29.96,SW,236,0.0,1.0,96,0.00,,,0.00,,2013-08-25 14:23:00,
2013-08-25 07:52:00,58.0,57.0,29.97,SW,236,1.0,1.0,96,0.00,,,0.00,,2013-08-25 14:52:00,
2013-08-25 08:11:00,58.0,57.0,29.97,SW,236,0.0,2.0,97,0.00,,,0.00,,2013-08-25 15:11:00,
2013-08-25 08:23:00,59.0,58.0,29.97,SW,235,0.0,2.0,96,0.00,,,0.00,,2013-08-25 15:23:00,
2013-08-25 08:35:00,59.0,58.0,29.97,SW,235,0.0,2.0,96,0.00,,,0.00,,2013-08-25 15:35:00,
2013-08-25 08:44:00,59.0,58.0,29.97,SW,235,0.0,2.0,96,0.00,,,0.00,,2013-08-25 15:44:00,
2013-08-25 08:54:00,61.0,58.0,29.98,SSW,201,1.0,3.0,91,0.00,,,0.00,,2013-08-25 15:54:00,
2013-08-25 09:13:00,62.0,58.0,29.98,SW,224,2.0,3.0,88,0.00,,,0.00,,2013-08-25 16:13:00,
2013-08-25 09:24:00,64.0,60.0,29.98,WSW,258,1.0,3.0,86,0.00,,,0.00,,2013-08-25 16:24:00,
2013-08-25 09:44:00,64.0,59.0,29.98,West,274,2.0,5.0,84,0.00,,,0.00,,2013-08-25 16:44:00,
2013-08-25 09:53:00,66.0,60.0,29.98,NW,308,1.0,4.0,82,0.00,,,0.00,,2013-08-25 16:53:00,
2013-08-25 10:11:00,66.0,60.0,29.98,SW,220,1.0,4.0,81,0.00,,,0.00,,2013-08-25 17:11:00,
2013-08-25 10:22:00,67.0,61.0,29.98,SW,234,1.0,3.0,80,0.00,,,0.00,,2013-08-25 17:22:00,
2013-08-25 10:42:00,67.0,61.0,29.99,West,265,1.0,5.0,80,0.00,,,0.00,,2013-08-25 17:42:00,
2013-08-25 10:53:00,67.0,60.0,29.99,West,266,2.0,3.0,79,0.00,,,0.00,,2013-08-25 17:53:00,
2013-08-25 11:12:00,68.0,60.0,29.99,South,181,2.0,5.0,76,0.00,,,0.00,,2013-08-25 18:12:00,
2013-08-25 11:21:00,70.0,61.0,29.99,SW,217,2.0,4.0,74,0.00,,,0.00,,2013-08-25 18:21:00,
2013-08-25 11:42:00,71.0,61.0,29.99,WSW,255,2.0,5.0,70,0.00,,,0.00,,2013-08-25 18:42:00,
2013-08-25 11:52:00,72.0,61.0,29.99,SSW,207,2.0,5.0,68,0.00,,,0.00,,2013-08-25 18:52:00,
2013-08-25 12:11:00,72.0,61.0,29.99,WNW,302,2.0,4.0,68,0.00,,,0.00,,2013-08-25 19:11:00,
2013-08-25 12:22:00,73.0,61.0,29.99,WNW,297,2.0,6.0,65,0.00,,,0.00,,2013-08-25 19:22:00,
2013-08-25 12:42:00,74.0,61.0,29.99,WNW,292,2.0,6.0,63,0.00,,,0.00,,2013-08-25 19:42:00,
2013-08-25 12:53:00,75.0,61.0,29.99,WSW,254,3.0,9.0,61,0.00,,,0.00,,2013-08-25 19:53:00,
2013-08-25 13:12:00,75.0,61.0,29.98,West,277,2.0,6.0,61,0.00,,,0.00,,2013-08-25 20:12:00,
2013-08-25 13:23:00,75.0,60.0,29.98,SSW,194,3.0,7.0,60,0.00,,,0.00,,2013-08-25 20:23:00,
2013-08-25 13:43:00,76.0,61.0,29.98,NW,304,4.0,8.0,59,0.00,,,0.00,,2013-08-25 20:43:00,
2013-08-25 13:52:00,76.0,60.0,29.98,WNW,293,2.0,8.0,58,0.00,,,0.00,,2013-08-25 20:52:00,
2013-08-25 14:12:00,76.0,61.0,29.98,WSW,257,2.0,6.0,59,0.00,,,0.00,,2013-08-25 21:12:00,
2013-08-25 14:22:00,75.0,61.0,29.98,NW,317,2.0,7.0,61,0.00,,,0.00,,2013-08-25 21:22:00,
2013-08-25 14:43:00,75.0,60.0,29.98,West,276,3.0,7.0,59,0.00,,,0.00,,2013-08-25 21:43:00,
2013-08-25 14:54:00,75.0,60.0,29.98,WNW,300,3.0,5.0,60,0.00,,,0.00,,2013-08-25 21:54:00,
2013-08-25 15:13:00,75.0,60.0,29.98,North,355,3.0,9.0,60,0.00,,,0.00,,2013-08-25 22:13:00,
2013-08-25 15:24:00,75.0,60.0,29.98,WNW,284,3.0,8.0,59,0.00,,,0.00,,2013-08-25 22:24:00,
2013-08-25 15:43:00,76.0,60.0,29.98,SSW,194,2.0,11.0,57,0.00,,,0.00,,2013-08-25 22:43:00,
2013-08-25 15:53:00,75.0,59.0,29.97,NW,316,3.0,7.0,58,0.00,,,0.00,,2013-08-25 22:53:00,
2013-08-25 16:12:00,75.0,60.0,29.97,WSW,255,3.0,10.0,59,0.00,,,0.00,,2013-08-25 23:12:00,
2013-08-25 16:23:00,75.0,59.0,29.97,WNW,282,3.0,7.0,57,0.00,,,0.00,,2013-08-25 23:23:00,
2013-08-25 16:42:00,75.0,59.0,29.97,WSW,240,4.0,8.0,58,0.00,,,0.00,,2013-08-25 23:42:00,
2013-08-25 16:53:00,75.0,58.0,29.97,West,265,2.0,7.0,56,0.00,,,0.00,,2013-08-25 23:53:00,
2013-08-25 17:11:00,74.0,57.0,29.96,WNW,300,2.0,8.0,56,0.00,,,0.00,,2013-08-26 00:11:00,
2013-08-25 17:22:00,73.0,57.0,29.96,WNW,302,4.0,7.0,58,0.00,,,0.00,,2013-08-26 00:22:00,
2013-08-25 17:41:00,72.0,56.0,29.96,NW,323,2.0,7.0,57,0.00,,,0.00,,2013-08-26 00:41:00,
2013-08-25 17:52:00,72.0,57.0,29.96,South,175,2.0,6.0,60,0.00,,,0.00,,2013-08-26 00:52:00,
2013-08-25 18:11:00,71.0,56.0,29.96,WSW,250,3.0,6.0,59,0.00,,,0.00,,2013-08-26 01:11:00,
2013-08-25 18:22:00,71.0,56.0,29.96,West,280,3.0,6.0,59,0.00,,,0.00,,2013-08-26 01:22:00,
2013-08-25 18:42:00,71.0,58.0,29.96,WNW,284,2.0,6.0,64,0.00,,,0.00,,2013-08-26 01:42:00,
2013-08-25 18:52:00,70.0,58.0,29.96,WNW,288,2.0,6.0,66,0.00,,,0.00,,2013-08-26 01:52:00,
2013-08-25 19:02:00,70.0,58.0,29.96,WNW,288,2.0,6.0,66,0.00,,,0.00,,2013-08-26 02:02:00,
2013-08-25 19:11:00,70.0,58.0,29.96,WNW,288,2.0,6.0,66,0.00,,,0.00,,2013-08-26 02:11:00,
2013-08-25 19:21:00,68.0,59.0,29.95,West,265,2.0,6.0,73,0.00,,,0.00,,2013-08-26 02:21:00,
2013-08-25 19:32:00,68.0,59.0,29.95,West,265,2.0,6.0,73,0.00,,,0.00,,2013-08-26 02:32:00,
2013-08-25 19:42:00,68.0,59.0,29.95,West,265,2.0,6.0,73,0.00,,,0.00,,2013-08-26 02:42:00,
2013-08-25 19:52:00,66.0,59.0,29.96,West,269,1.0,3.0,77,0.00,,,0.00,,2013-08-26 02:52:00,
2013-08-25 20:11:00,64.0,58.0,29.96,WNW,290,1.0,3.0,80,0.00,,,0.00,,2013-08-26 03:11:00,
2013-08-25 20:21:00,63.0,57.0,29.95,West,267,2.0,5.0,82,0.00,,,0.00,,2013-08-26 03:21:00,
2013-08-25 20:44:00,62.0,57.0,29.96,West,263,1.0,3.0,84,0.00,,,0.00,,2013-08-26 03:44:00,
2013-08-25 20:55:00,61.0,57.0,29.96,SW,236,1.0,4.0,86,0.00,,,0.00,,2013-08-26 03:55:00,
2013-08-25 21:14:00,61.0,57.0,29.96,WSW,257,1.0,4.0,88,0.00,,,0.00,,2013-08-26 04:14:00,
2013-08-25 21:43:00,59.0,56.0,29.97,WSW,246,1.0,3.0,91,0.00,,,0.00,,2013-08-26 04:43:00,
2013-08-25 21:53:00,59.0,57.0,29.97,West,281,2.0,4.0,92,0.00,,,0.00,,2013-08-26 04:53:00,
2013-08-25 22:13:00,59.0,57.0,29.97,West,279,1.0,3.0,93,0.00,,,0.00,,2013-08-26 05:13:00,
2013-08-25 22:22:00,59.0,57.0,29.98,NW,304,1.0,4.0,93,0.00,,,0.00,,2013-08-26 05:22:00,
2013-08-25 22:43:00,59.0,57.0,29.98,West,273,1.0,3.0,94,0.00,,,0.00,,2013-08-26 05:43:00,
2013-08-25 22:52:00,59.0,57.0,29.98,West,261,1.0,5.0,94,0.00,,,0.00,,2013-08-26 05:52:00,
2013-08-25 23:12:00,59.0,57.0,29.98,SSW,212,1.0,3.0,94,0.00,,,0.00,,2013-08-26 06:12:00,
2013-08-25 23:21:00,59.0,57.0,29.98,West,272,1.0,3.0,94,0.00,,,0.00,,2013-08-26 06:21:00,
2013-08-25 23:42:00,58.0,56.0,29.98,WSW,252,1.0,3.0,94,0.00,,,0.00,,2013-08-26 06:42:00,
2013-08-25 23:52:00,59.0,57.0,29.98,WSW,253,1.0,2.0,94,0.00,,,0.00,,2013-08-26 06:52:00,